Regional Weather Roundup
Issued by NWS Little Rock, AR

Home | Current Version | Previous Version | Text Only | Print | Product List | Glossary Off
Versions: 1 2 3 4 5 6 7 8 9 10 11 12 13 14 15 16 17 18 19 20 21 22 23 24 25 26 27 28 29 30 31 32 33 34 35 36 37 38 39 40 41 42 43 44 45 46 47 48 49 50

000
ASUS44 KLZK 301505
RWRLZK

WEATHER ROUNDUP FOR ARKANSAS
NATIONAL WEATHER SERVICE LITTLE ROCK AR
1000 AM CDT TUE SEP 30 2014

NOTE: "FAIR" INDICATES FEW OR NO CLOUDS BELOW 12,000 FEET WITH NO
SIGNIFICANT WEATHER AND/OR OBSTRUCTIONS TO VISIBILITY.

ARZ001-003-010-029-301600-
NORTHWEST ARKANSAS

CITY           SKY/WX    TMP DP  RH WIND       PRES   REMARKS
FAYETTEVILLE   SUNNY     68  62  81 CALM      29.98S
FORT SMITH     SUNNY     70  63  78 E7        29.95S
HARRISON       SUNNY     72  62  71 SE8       29.99S
BENTONVILLE    SUNNY     73  61  64 S5        29.98S
ROGERS         SUNNY     72  61  68 SE6       29.99S
SILOAM SPGS    SUNNY     72  61  68 S5        29.98S
HIGHFILL       SUNNY     71  62  73 SE3       29.98R
SPRINGDALE     SUNNY     70  61  73 CALM      30.00S
$$

ARZ004-005-016-301600-
NORTH CENTRAL ARKANSAS

CITY           SKY/WX    TMP DP  RH WIND       PRES   REMARKS
BATESVILLE     SUNNY     72  57  60 CALM      29.97S
FLIPPIN        SUNNY     70  57  64 CALM      29.98F
MTN HOME       SUNNY     73  61  65 CALM      29.98R
$$

ARZ040-041-301600-
WEST CENTRAL ARKANSAS

CITY           SKY/WX    TMP DP  RH WIND       PRES   REMARKS
MENA           CLOUDY    68  63  83 CALM      29.98S
MOUNT IDA      MOSUNNY   70  63  78 CALM      29.95S
$$

ARZ009-017-025-026-028-301600-
NORTHEAST ARKANSAS

CITY           SKY/WX    TMP DP  RH WIND       PRES   REMARKS
CORNING          N/A     72  61  68 N3        29.97S
JONESBORO      SUNNY     77  56  48 E7        29.95F
NEWPORT        SUNNY     74  60  61 CALM      29.97S
WALNUT RIDGE   SUNNY     73  59  60 NE5       29.96S
BLYTHEVILLE    SUNNY     77  60  55 SE5       29.96S
NW BLYTHEVILLE SUNNY     75  59  57 NE3       29.95F
$$

ARZ022-023-033-042-044-301600-
CENTRAL ARKANSAS

CITY           SKY/WX    TMP DP  RH WIND       PRES   REMARKS
LITTLE ROCK    MOSUNNY   76  58  53 CALM      29.97R
N LITTLE ROCK  MOSUNNY   77  61  58 E3        29.97R
JACKSONVILLE   SUNNY     73  59  61 VRB1      29.97R
SEARCY         SUNNY     75  57  53 CALM      29.98R
HOT SPRINGS    MOSUNNY   74  62  66 CALM      29.97R
RUSSELLVILLE   MOSUNNY   73  63  70 CALM      29.97R
CLINTON        FAIR      70  63  78 CALM      29.98S
$$

ARZ036-301600-
EAST ARKANSAS

CITY           SKY/WX    TMP DP  RH WIND       PRES   REMARKS
WEST MEMPHIS   SUNNY     76  60  57 CALM      29.95S
$$

ARZ050-053-066-070-073-301600-
SOUTHWEST ARKANSAS

CITY           SKY/WX    TMP DP  RH WIND       PRES   REMARKS
ARKADELPHIA    FAIR      72  65  78 VRB3      29.96R
CAMDEN         MOSUNNY   77  61  57 SE3       29.95R
TEXARKANA      CLOUDY    73  65  75 SE5       29.94S
EL DORADO      CLOUDY    75  64  68 NE3       29.95R
DE QUEEN       CLOUDY    74  65  73 E7        29.93R
$$

ARZ056-057-069-301600-
SOUTHEAST ARKANSAS

CITY           SKY/WX    TMP DP  RH WIND       PRES   REMARKS
PINE BLUFF     SUNNY     76  62  62 E3        29.97R
STUTTGART      SUNNY    N/A N/A N/A CALM      29.97R
MONTICELLO     MOSUNNY   76  63  64 E3        29.96R

$$





USA.gov is the U.S. government's official web portal to all federal, state and local government web resources and services.